Wind_Speed
13 11 9 6 5 4 5 5 4 3 4 7 9 10 10 9 10 12 14 14 13 11 11 11 11 10 9 9 9 8 7 6 6 6 6 6 4 3 3 3 4 4 4 5
14 12 9 7 6 6 6 5 5 5 6 9 10 11 11 9 10 11 13 13 14 12 11 11 11 11 9 9 9 9 8 7 6 6 6 6 5 4 4 4 4 5 5 5
15 12 11 9 8 8 8 9 8 8 7 9 11 11 10 10 11 11 12 13 13 12 12 12 11 10 10 10 10 9 9 8 8 7 6 6 5 5 5 4 4 4 4 5
16 14 12 10 9 9 9 9 9 9 11 11 11 12 11 12 11 10 11 11 12 12 13 12 12 11 10 10 9 9 9 9 8 8 7 7 6 5 5 4 4 4 6 6
16 14 13 11 10 10 10 10 10 10 11 12 12 14 12 12 11 10 10 10 11 12 13 12 11 11 10 10 10 10 8 8 8 7 7 7 6 6 5 5 5 5 6 6
16 15 14 12 11 12 12 12 12 12 12 12 12 14 12 13 12 12 11 11 11 12 13 12 12 12 11 11 12 11 9 8 7 7 7 7 6 6 6 6 5 6 6 6
16 16 15 13 13 13 14 14 14 14 14 12 12 14 12 12 12 12 13 13 13 12 13 14 13 12 12 12 12 12 11 8 8 7 7 7 6 6 6 6 6 6 6 6
17 16 14 14 13 13 15 15 15 16 15 13 13 14 12 11 12 13 14 15 14 13 13 13 13 13 13 13 13 12 11 9 9 8 8 8 8 7 7 7 6 7 7 7
17 16 15 14 14 15 16 16 16 17 17 17 16 15 14 13 12 13 14 14 14 15 14 14 13 13 14 14 13 12 11 11 11 10 10 9 9 9 9 8 8 8 9 9
18 18 16 16 16 16 16 16 17 18 19 19 18 18 17 15 14 15 16 16 16 17 16 15 15 15 15 14 14 13 13 13 13 12 11 11 10 11 11 11 10 11 11 12
21 21 19 18 18 17 17 18 18 20 20 21 21 19 18 17 16 16 17 18 17 17 17 16 16 16 16 16 15 14 13 13 13 13 13 13 12 12 13 13 13 14 14 15
22 23 23 21 21 21 19 18 19 21 21 22 23 21 19 19 19 19 18 19 20 20 19 18 18 18 17 17 16 15 15 15 15 15 15 15 15 15 15 15 16 16 17 17
24 25 26 23 23 22 22 20 20 22 23 23 24 23 21 21 22 21 21 21 21 20 20 19 19 19 19 19 18 18 17 17 17 17 17 16 17 17 17 18 18 19 19 19
27 27 27 26 24 24 24 22 22 24 25 25 25 24 23 22 23 24 23 22 22 21 21 21 21 21 21 20 21 20 20 20 20 19 19 18 19 19 20 20 20 20 21 21
29 29 29 28 28 27 26 25 24 26 26 27 27 26 25 25 25 24 25 25 24 23 22 21 21 22 22 22 22 22 23 23 22 21 21 22 21 22 22 22 22 22 22 22
30 31 30 29 29 30 29 28 28 27 27 28 28 28 27 26 27 28 28 28 27 26 25 24 24 24 24 24 24 25 24 25 25 24 23 24 24 24 24 24 25 25 25 25
32 32 31 31 29 30 29 29 30 29 28 28 29 29 29 29 29 29 29 29 28 28 27 26 25 26 27 26 26 26 26 27 27 27 26 26 26 26 27 26 26 26 27 27
33 33 33 32 31 33 29 28 29 30 29 29 30 30 29 29 30 30 30 29 29 29 30 28 27 28 28 27 27 28 28 29 29 28 28 27 27 27 28 28 28 28 29 29
33 33 34 33 33 32 30 29 30 30 31 29 30 30 30 30 30 30 30 31 31 31 31 31 29 29 30 30 30 29 29 30 29 29 29 27 27 28 29 30 30 30 30 30
32 33 35 35 36 35 31 31 32 33 33 32 32 32 32 32 33 32 32 33 32 32 32 31 30 30 31 31 31 31 30 30 29 29 29 29 29 30 30 30 31 31 32 32
32 33 34 35 37 37 34 33 33 34 34 32 33 33 33 34 35 35 34 34 33 33 34 33 31 31 31 32 32 32 31 31 30 30 30 30 30 29 30 31 31 31 32 32
33 34 35 36 37 37 35 34 34 35 34 34 34 34 34 35 35 35 36 36 35 35 34 33 32 32 32 33 33 33 33 32 32 31 30 30 30 30 30 31 31 31 32 32
34 35 35 37 38 37 35 36 36 35 35 34 34 33 34 35 37 37 37 36 36 35 35 34 33 33 34 34 34 34 33 33 32 31 31 30 31 31 31 31 31 31 32 32
34 35 36 37 37 37 36 35 36 35 35 35 34 34 34 35 36 36 35 35 35 35 35 35 34 34 34 35 35 33 32 31 32 31 30 31 31 32 32 32 32 32 33 33
33 35 36 38 37 37 36 36 36 37 36 34 33 33 34 35 35 35 35 36 36 36 36 35 35 34 34 33 34 33 33 32 32 31 31 31 32 31 32 33 33 34 34 34
31 33 34 36 36 36 35 35 35 35 35 34 33 34 35 36 36 36 36 36 36 36 35 34 34 34 34 33 34 34 34 33 33 32 32 32 32 32 33 34 34 35 34 33
Wind_Direction
204 201 199 205 193 190 201 204 222 262 295 307 311 317 325 336 344 353 355 354 352 348 350 350 357 359 356 355 354 353 357 359 2 5 9 7 357 343 313 290 286 279 274 267
211 207 207 210 214 220 224 235 247 255 275 287 292 304 310 328 334 342 346 346 349 348 349 342 341 345 344 345 349 352 349 347 348 347 350 352 344 338 312 297 291 284 270 259
214 215 213 215 221 227 236 241 245 249 266 282 286 294 300 308 319 330 339 340 339 342 348 349 348 346 346 344 345 347 346 342 339 335 334 336 328 324 312 301 287 283 268 261
219 221 221 224 228 238 245 249 250 249 259 267 277 286 294 300 312 320 328 328 331 335 339 343 344 343 341 339 336 337 339 339 336 331 330 329 322 316 310 309 299 285 271 265
222 226 226 222 226 238 242 252 258 255 260 258 266 281 290 292 303 312 316 317 323 327 330 333 335 335 332 331 330 327 330 331 327 327 329 330 328 322 314 305 298 296 285 280
224 225 226 224 229 239 246 248 250 255 260 263 270 279 291 289 297 305 312 315 320 320 321 323 326 328 327 326 324 323 320 326 324 324 326 328 331 331 325 313 300 296 295 299
223 224 227 231 236 239 247 249 248 252 254 263 271 275 282 288 289 296 304 308 312 313 315 314 315 317 319 321 318 314 308 310 315 317 321 322 325 324 325 321 309 301 306 308
221 222 229 234 239 243 249 251 250 254 258 266 274 278 283 283 288 294 298 303 304 305 303 308 315 314 316 316 311 305 303 302 303 303 307 310 312 310 313 316 312 307 307 305
227 226 224 231 238 243 249 255 256 255 258 264 269 278 282 284 291 294 291 296 302 302 302 305 308 308 310 312 311 304 300 296 294 292 291 297 299 297 298 303 303 302 303 302
233 228 223 230 234 240 249 254 254 253 256 261 264 271 280 282 288 290 291 295 299 300 296 303 309 308 307 307 306 299 292 291 290 293 290 288 290 290 289 290 292 295 297 299
236 233 229 228 233 240 245 249 251 255 258 262 265 266 273 275 280 284 287 290 293 296 298 301 304 305 306 302 300 297 290 287 287 289 290 289 288 287 286 285 287 290 293 295
239 238 234 231 234 241 244 247 249 250 254 261 266 266 269 272 277 278 280 285 290 294 297 299 302 302 303 301 299 296 291 288 286 286 286 287 287 286 285 284 286 287 289 290
239 240 238 235 236 239 243 247 250 253 256 260 264 266 268 269 273 276 277 282 288 293 295 297 298 298 299 298 297 296 293 290 287 287 286 287 286 285 285 284 284 286 288 288
238 241 243 241 238 237 240 244 249 250 252 257 262 264 266 269 272 273 275 279 283 287 292 295 294 293 294 295 293 292 291 288 286 285 286 285 285 285 285 285 283 285 286 287
243 243 243 242 239 238 239 243 247 249 250 255 258 259 262 267 271 272 274 278 281 286 289 290 289 290 290 290 289 289 287 286 284 284 285 286 286 287 286 285 284 285 285 286
246 247 247 246 244 242 242 245 247 248 250 255 256 256 260 265 267 270 274 278 279 284 285 287 286 287 288 287 283 283 284 285 286 285 285 285 287 287 286 285 284 285 286 286
246 249 250 249 248 246 245 245 246 248 250 254 254 256 258 260 264 270 274 274 277 282 283 282 285 286 285 285 284 283 283 284 285 285 284 284 285 286 286 286 286 286 286 286
248 250 252 254 252 249 249 248 248 249 250 253 255 256 257 262 265 268 271 272 276 280 282 282 284 286 284 285 285 283 283 284 284 284 283 283 285 287 285 286 287 287 287 287
247 250 252 253 253 253 249 248 249 251 252 253 257 258 259 260 264 268 272 275 278 280 280 280 283 283 282 284 286 286 282 281 281 282 282 283 284 286 286 285 286 286 286 287
246 249 252 254 254 253 250 248 249 252 253 254 256 258 259 260 263 267 271 276 277 278 278 279 281 282 282 284 284 286 284 281 279 280 282 283 282 284 285 285 285 286 286 288
245 248 251 253 255 255 253 251 251 253 256 257 258 259 261 261 263 267 271 274 277 278 279 280 282 281 281 282 283 283 285 282 280 280 281 281 282 283 286 286 286 287 286 287
246 248 251 254 254 255 256 256 254 256 257 258 260 260 260 262 265 268 271 273 277 278 279 279 281 282 282 282 283 284 285 283 282 280 280 281 282 283 285 286 286 286 286 288
247 249 252 254 255 257 259 259 258 258 257 258 259 260 261 262 265 267 270 272 275 277 277 277 279 280 281 281 283 284 282 280 281 280 281 281 282 283 284 285 285 286 286 286
248 249 251 253 255 258 260 261 258 257 257 257 258 260 263 265 265 266 270 272 275 276 276 276 277 279 279 280 281 282 281 281 282 282 282 280 282 283 284 285 285 285 286 286
249 250 252 254 257 258 260 261 259 258 259 259 260 261 264 267 267 269 271 273 275 276 275 275 276 277 278 278 279 279 279 280 283 283 283 283 282 283 283 284 284 284 284 285
248 249 252 255 257 258 259 260 261 262 261 261 262 263 264 265 268 270 271 274 275 274 274 275 275 276 277 278 277 278 279 280 283 284 283 282 283 283 284 284 284 284 284 285
Height
5922 5924 5925 5926 5926 5927 5927 5927 5927 5927 5926 5926 5925 5925 5925 5923 5923 5922 5921 5920 5918 5917 5916 5914 5913 5912 5910 5909 5908 5907 5905 5904 5903 5902 5901 5900 5899 5898 5898 5897 5897 5896 5896 5896
5920 5921 5923 5923 5924 5925 5925 5925 5925 5925 5925 5925 5924 5924 5923 5922 5922 5921 5920 5919 5918 5917 5915 5914 5913 5911 5910 5909 5907 5906 5905 5904 5903 5902 5900 5899 5898 5897 5896 5895 5895 5895 5894 5894
5917 5920 5920 5920 5921 5922 5923 5924 5923 5923 5923 5923 5923 5923 5922 5922 5920 5919 5919 5918 5917 5916 5914 5913 5911 5910 5909 5908 5907 5905 5904 5903 5902 5901 5900 5898 5897 5896 5894 5893 5893 5893 5893 5892
5914 5916 5917 5917 5919 5920 5921 5922 5921 5921 5921 5921 5921 5920 5920 5919 5918 5917 5917 5917 5916 5915 5913 5912 5910 5909 5908 5907 5906 5904 5903 5902 5901 5899 5898 5897 5895 5894 5892 5892 5891 5891 5891 5891
5911 5913 5913 5914 5916 5918 5918 5919 5919 5919 5919 5919 5919 5918 5918 5917 5916 5916 5915 5915 5914 5913 5912 5910 5909 5908 5906 5905 5904 5902 5901 5900 5899 5898 5897 5895 5894 5892 5891 5890 5890 5889 5889 5888
5908 5909 5910 5912 5914 5915 5916 5916 5917 5917 5917 5917 5917 5916 5915 5914 5913 5913 5914 5913 5911 5911 5910 5908 5907 5906 5904 5903 5902 5900 5899 5898 5897 5896 5895 5894 5893 5891 5890 5888 5888 5888 5887 5886
5904 5905 5907 5908 5910 5912 5913 5914 5914 5914 5914 5914 5913 5912 5913 5911 5911 5910 5910 5910 5909 5908 5907 5906 5904 5903 5902 5900 5899 5898 5897 5896 5895 5894 5893 5892 5891 5890 5889 5888 5887 5886 5885 5885
5899 5902 5904 5905 5907 5908 5909 5911 5911 5911 5911 5911 5910 5908 5909 5908 5907 5907 5907 5906 5906 5905 5904 5903 5902 5900 5899 5898 5897 5895 5894 5894 5893 5892 5891 5890 5889 5889 5888 5886 5885 5884 5884 5883
5895 5898 5900 5901 5903 5904 5905 5906 5907 5907 5907 5906 5906 5905 5905 5904 5904 5904 5903 5903 5902 5901 5901 5900 5898 5897 5897 5896 5894 5893 5892 5891 5890 5889 5888 5888 5887 5886 5885 5884 5883 5882 5881 5880
5890 5893 5895 5897 5898 5899 5901 5902 5902 5902 5902 5901 5902 5901 5902 5901 5900 5900 5899 5899 5899 5898 5897 5896 5894 5893 5893 5892 5891 5890 5889 5888 5887 5886 5885 5884 5884 5883 5882 5881 5880 5879 5878 5876
5885 5887 5890 5892 5893 5894 5896 5897 5897 5897 5897 5897 5897 5899 5898 5897 5897 5897 5896 5896 5895 5894 5893 5892 5891 5890 5889 5888 5887 5886 5885 5885 5884 5883 5882 5881 5880 5879 5878 5877 5876 5875 5874 5872
5879 5881 5883 5886 5888 5889 5890 5891 5892 5892 5892 5891 5891 5895 5893 5893 5892 5892 5892 5891 5890 5889 5889 5888 5888 5886 5884 5883 5883 5882 5881 5881 5880 5879 5878 5877 5876 5875 5874 5873 5871 5870 5869 5868
5873 5875 5877 5880 5884 5884 5884 5885 5885 5886 5886 5886 5886 5889 5887 5887 5887 5887 5886 5886 5885 5884 5884 5884 5883 5882 5880 5879 5878 5878 5877 5876 5876 5875 5873 5872 5872 5870 5869 5867 5866 5865 5864 5862
5867 5869 5871 5874 5875 5877 5877 5878 5879 5879 5879 5880 5880 5881 5881 5881 5881 5881 5881 5880 5880 5879 5879 5878 5878 5877 5876 5875 5874 5873 5872 5871 5870 5869 5868 5867 5866 5865 5864 5862 5860 5859 5858 5856
5860 5862 5863 5866 5868 5869 5870 5872 5872 5872 5873 5873 5874 5874 5875 5875 5875 5875 5875 5875 5874 5874 5873 5872 5872 5871 5870 5869 5868 5867 5866 5865 5864 5863 5862 5860 5859 5858 5857 5856 5854 5853 5852 5850
5853 5855 5856 5858 5860 5861 5863 5865 5865 5866 5866 5866 5867 5867 5869 5869 5869 5868 5868 5868 5867 5867 5867 5866 5865 5864 5863 5862 5861 5860 5859 5858 5857 5856 5856 5855 5853 5852 5850 5849 5847 5846 5845 5843
5846 5848 5849 5851 5853 5853 5856 5858 5858 5858 5858 5859 5860 5862 5862 5862 5862 5862 5861 5861 5860 5860 5860 5859 5858 5858 5856 5855 5854 5852 5852 5851 5850 5849 5848 5847 5845 5844 5843 5841 5840 5839 5837 5836
5839 5840 5841 5843 5845 5846 5851 5851 5850 5850 5850 5852 5853 5853 5854 5855 5855 5855 5855 5854 5853 5853 5853 5852 5851 5850 5849 5848 5846 5845 5844 5843 5842 5841 5840 5838 5837 5836 5835 5833 5832 5831 5829 5827
5830 5832 5833 5834 5835 5837 5842 5842 5842 5842 5843 5845 5845 5845 5846 5847 5847 5847 5847 5846 5846 5846 5845 5844 5843 5843 5842 5840 5838 5836 5836 5835 5834 5833 5832 5830 5829 5828 5827 5825 5824 5822 5820 5818
5822 5823 5825 5825 5826 5829 5834 5834 5833 5835 5835 5837 5837 5838 5838 5839 5839 5840 5839 5839 5838 5838 5837 5836 5835 5835 5833 5832 5830 5828 5828 5826 5825 5824 5823 5822 5821 5820 5818 5816 5815 5813 5811 5809
5813 5814 5815 5816 5816 5819 5823 5825 5825 5826 5827 5828 5829 5830 5830 5830 5831 5831 5830 5830 5830 5829 5828 5827 5827 5826 5825 5823 5822 5820 5819 5818 5817 5816 5815 5814 5813 5811 5809 5808 5806 5804 5802 5801
5803 5804 5805 5806 5807 5811 5813 5814 5816 5816 5818 5819 5820 5820 5821 5821 5821 5821 5821 5821 5821 5820 5819 5819 5818 5817 5816 5814 5813 5812 5810 5809 5808 5807 5806 5805 5804 5802 5801 5799 5797 5795 5793 5791
5793 5795 5796 5797 5800 5801 5802 5804 5805 5806 5808 5809 5809 5810 5811 5811 5812 5812 5811 5811 5811 5811 5810 5810 5809 5808 5807 5805 5804 5803 5802 5800 5799 5798 5797 5796 5794 5793 5792 5790 5788 5786 5784 5782
5784 5785 5786 5787 5788 5791 5792 5793 5795 5795 5797 5798 5799 5800 5801 5801 5801 5801 5802 5802 5801 5801 5800 5800 5800 5799 5798 5797 5795 5794 5792 5791 5790 5788 5787 5786 5785 5784 5782 5781 5779 5777 5775 5773
5774 5775 5776 5777 5779 5781 5782 5783 5784 5785 5786 5787 5789 5790 5791 5791 5791 5791 5792 5791 5791 5790 5790 5790 5790 5789 5788 5787 5786 5785 5784 5782 5781 5780 5778 5777 5776 5774 5773 5771 5769 5767 5765 5763
5766 5767 5768 5769 5770 5772 5773 5774 5775 5775 5777 5778 5779 5780 5781 5781 5781 5781 5781 5781 5781 5780 5780 5780 5780 5779 5779 5778 5777 5776 5775 5773 5772 5770 5769 5768 5766 5765 5763 5761 5759 5756 5754 5752